RH
73 72 72 71 70 71 73 74 73 75 75 75 75 75 76 76 75 76 77 78 77 76 78 77 76 77 59 41 38 45 50 47 44 42 42 42 37 38 39 41 43 43 48 48 53 54 56
73 73 74 73 73 72 71 73 76 76 73 72 74 76 77 76 76 76 78 78 77 77 78 76 76 72 43 30 49 46 43 45 43 42 44 40 40 40 41 48 45 52 50 49 48 48 50
76 75 75 74 75 77 74 72 75 76 75 73 73 75 76 77 76 76 78 78 78 77 77 72 71 44 44 25 46 44 41 46 47 45 41 49 46 39 44 48 48 48 48 50 47 45 49
77 79 77 75 76 78 77 75 75 76 75 75 76 75 75 76 76 78 80 79 80 82 78 72 68 42 35 44 47 40 40 43 42 42 40 43 38 38 44 46 38 42 44 48 45 47 52
76 76 79 78 77 79 79 78 77 77 77 76 77 78 77 77 76 78 83 83 81 77 72 70 51 48 34 48 42 44 46 44 44 42 38 26 37 43 43 44 42 42 36 43 42 49 50
80 79 79 81 80 80 81 79 80 79 79 79 80 80 80 78 80 83 84 78 73 60 48 33 31 37 40 39 45 45 44 46 42 41 39 35 40 45 44 35 27 31 41 36 36 51 50
83 82 85 86 83 82 82 80 82 81 82 82 82 82 81 77 78 83 79 48 33 33 44 26 33 35 45 46 47 46 43 44 41 33 33 45 35 36 39 40 24 28 34 31 33 51 53
90 89 88 89 87 84 84 83 83 84 84 84 84 84 82 76 73 76 66 48 76 71 44 42 46 48 46 47 46 46 43 35 41 34 38 37 35 28 32 38 31 34 32 32 37 60 56
94 95 93 92 91 89 88 89 87 84 86 87 87 86 82 76 75 57 70 73 80 77 39 34 46 46 45 45 43 42 45 44 41 47 39 33 32 34 36 42 37 38 34 35 31 53 60
88 90 94 95 93 93 92 91 91 89 90 91 89 84 81 79 52 67 50 77 81 78 40 29 55 51 49 51 47 46 43 46 51 39 42 38 41 44 46 41 35 38 35 35 42 43 40
84 86 89 87 93 95 94 93 92 91 92 91 90 84 79 70 62 49 58 84 82 40 52 36 55 44 50 46 50 53 45 45 47 45 42 39 49 48 48 42 34 38 39 39 41 42 48
78 81 87 90 91 94 97 95 94 93 92 92 90 86 78 58 59 64 85 77 48 51 49 40 55 50 53 53 50 49 43 36 41 43 44 40 46 47 43 49 43 45 40 49 56 45 58
79 78 79 84 88 91 92 96 96 95 94 93 90 85 82 64 33 78 74 46 46 63 28 38 56 53 49 47 50 47 44 43 48 51 49 46 44 51 46 47 45 37 35 56 52 65 45
79 79 79 79 78 89 92 92 93 96 96 95 90 78 70 62 73 69 50 42 49 34 29 47 55 53 47 43 48 47 49 43 40 42 48 54 50 52 49 42 47 39 36 52 40 58 51
81 81 81 80 78 79 89 90 91 94 95 96 89 76 72 77 76 56 50 56 48 35 28 47 51 54 51 46 42 55 53 49 38 38 30 45 36 46 48 49 42 45 42 40 43 50 55
80 82 82 80 79 82 83 85 87 90 95 94 95 90 78 75 72 79 87 54 37 34 45 47 41 39 42 47 46 51 49 42 36 40 38 33 38 47 43 44 46 46 38 48 54 55 56
74 80 82 80 81 85 84 83 85 91 96 87 96 99 81 74 80 90 92 65 32 24 38 43 42 43 39 44 48 53 41 37 40 49 36 36 36 44 45 48 51 50 50 49 47 53 57
72 72 76 80 86 87 85 82 82 90 92 87 97 98 91 79 92 97 92 59 47 38 47 54 44 41 39 37 51 49 43 34 44 42 38 36 42 54 47 38 37 51 48 45 54 51 55
74 71 73 78 83 87 87 83 80 83 89 98 98 98 94 90 99 98 79 56 46 59 62 65 62 49 40 38 40 49 45 48 50 42 40 34 39 50 41 47 41 36 44 44 49 56 60
78 77 75 76 80 85 87 86 83 81 91 98 99 100 98 95 96 96 96 96 90 64 61 63 86 73 57 54 46 52 43 52 52 47 39 38 44 43 47 53 42 38 38 45 40 70 46
75 78 75 76 80 83 84 85 84 84 91 98 100 98 91 99 99 99 99 100 100 98 88 89 98 94 84 92 98 95 54 49 45 45 46 36 46 48 45 45 38 37 36 46 41 35 41
75 76 78 76 76 78 82 85 85 86 91 99 99 99 99 96 94 97 99 99 99 96 97 98 98 83 95 95 89 74 69 76 71 66 49 49 50 48 47 41 42 46 43 39 42 38 38
75 77 79 76 74 76 79 84 85 85 91 100 99 96 94 92 98 99 97 95 97 96 95 92 94 99 100 95 93 92 96 98 93 84 69 72 60 90 81 84 92 84 83 49 43 53 51
75 76 77 80 76 76 77 81 85 85 90 98 96 97 99 98 98 95 95 94 97 98 99 98 100 100 100 99 100 100 99 99 100 99 90 96 92 95 96 95 96 82 66 70 66 81 91
73 74 73 79 78 78 81 82 82 85 85 98 97 97 97 99 94 92 85 87 85 99 100 100 100 100 100 100 98 98 96 98 97 96 97 97 98 97 96 94 88 78 66 66 71 71 87
74 76 75 79 79 82 83 81 81 82 81 97 98 98 99 100 98 86 97 95 96 97 99 98 99 100 99 98 98 97 94 95 95 92 92 96 97 98 96 96 94 82 51 51 71 72 78
72 74 78 80 78 79 80 80 79 89 84 96 98 95 99 99 99 97 99 99 98 100 99 97 98 97 98 98 96 95 95 96 94 94 90 95 96 96 95 96 93 85 51 48 94 88 68
77 79 81 81 78 74 71 74 78 81 85 96 99 97 97 100 99 95 96 100 100 100 99 98 98 98 97 97 98 96 96 95 95 94 93 92 94 95 96 96 93 55 46 54 75 72 61
83 76 74 76 77 74 71 72 74 80 84 91 99 91 89 99 98 92 98 99 98 98 98 99 98 97 98 98 98 98 95 95 96 95 88 94 96 94 91 87 85 57 50 54 58 61 58
Wind_Speed
8 10 12 13 14 15 16 16 17 16 16 16 15 16 16 16 16 16 16 16 14 11 9 7 8 7 1 3 4 2 9 8 2 2 4 2 3 4 5 4 3 4 2 5 4 8 7
4 5 7 8 10 12 13 15 16 17 18 18 18 18 17 18 18 17 16 16 15 13 10 8 7 6 2 1 2 3 5 2 3 4 3 5 2 3 6 4 3 2 5 5 2 4 4
6 5 6 7 8 9 11 12 14 16 18 20 20 18 18 18 19 18 17 15 14 14 11 9 6 1 3 6 1 3 4 1 2 2 3 1 2 3 4 5 5 5 5 2 2 5 4
8 8 7 7 9 10 9 9 11 13 15 18 20 21 19 18 17 20 20 17 15 11 10 8 6 0 5 1 2 2 4 1 4 2 3 2 4 7 4 4 6 4 4 3 3 6 1
7 7 10 11 10 10 11 11 10 9 11 14 16 19 21 22 21 19 20 22 13 6 7 6 3 1 5 1 2 0 2 2 2 3 5 3 6 4 3 6 4 5 3 4 2 6 5
9 8 9 9 10 10 11 10 12 12 12 12 14 15 18 21 21 21 21 15 8 4 1 0 1 3 0 3 1 1 1 2 3 3 3 6 6 4 3 4 6 7 5 4 5 6 4
11 11 10 9 9 10 11 11 11 12 13 14 14 14 16 17 19 21 11 5 6 3 2 7 2 2 0 0 1 1 1 3 3 6 4 3 4 8 12 7 3 6 4 5 4 5 5
11 12 12 10 10 10 10 10 11 10 12 13 13 15 16 16 18 14 2 4 1 2 10 4 3 2 2 2 1 3 3 5 3 5 4 5 8 6 4 6 5 4 4 4 1 2 5
12 13 12 12 11 11 11 10 10 10 11 11 11 13 17 19 15 6 2 3 5 4 4 7 4 3 3 5 4 5 5 4 4 5 6 7 2 5 6 5 6 4 5 4 4 2 1
14 15 12 12 12 12 12 11 11 11 9 9 10 12 14 23 5 3 3 5 4 3 4 8 3 2 3 2 3 1 2 3 1 9 8 5 2 6 4 5 6 5 5 5 5 4 4
14 14 14 14 12 13 13 11 11 12 10 9 8 10 12 6 2 2 3 4 3 4 6 1 2 1 3 4 2 1 0 3 6 6 6 6 7 5 4 5 7 4 3 5 3 3 2
13 13 14 14 15 14 12 11 11 11 10 8 6 7 10 4 2 4 4 3 4 8 10 4 1 2 3 2 1 1 1 3 3 4 0 2 1 3 6 3 2 9 6 6 4 3 2
11 11 12 13 13 13 13 13 11 11 11 9 5 3 5 2 1 3 4 4 6 5 3 4 4 2 2 5 4 4 4 5 7 6 6 1 4 3 4 6 3 2 5 1 3 1 7
11 11 11 11 12 12 11 10 11 13 12 10 3 3 1 1 3 4 4 5 6 6 8 2 3 2 5 6 5 6 3 4 7 2 4 8 6 10 6 6 9 7 7 7 7 5 2
12 11 12 13 13 13 12 12 12 12 11 3 7 1 2 4 2 2 5 3 9 8 4 6 2 4 5 4 4 2 9 6 9 14 10 7 6 1 2 2 4 6 6 2 6 2 2
14 11 11 12 11 11 12 12 12 14 13 12 3 1 2 2 2 4 5 8 7 5 2 3 9 9 8 6 6 7 9 6 7 13 1 6 2 1 1 1 2 4 5 4 1 5 6
13 13 12 11 11 11 12 13 11 11 3 10 1 2 1 3 4 3 5 8 7 9 4 5 6 5 9 8 8 7 8 4 6 7 5 6 4 1 2 9 10 4 4 1 3 5 6
14 14 13 14 10 10 11 13 14 7 12 4 2 4 1 2 2 2 4 6 5 8 5 4 5 5 7 8 8 7 11 9 9 10 10 8 7 7 10 2 1 2 7 7 6 7 3
15 14 12 12 11 11 10 11 11 7 14 3 2 1 2 0 4 5 4 5 6 3 5 1 7 9 3 5 6 10 8 2 8 11 13 10 5 2 2 1 1 7 7 5 5 4 9
17 14 13 11 14 13 11 10 11 12 15 3 2 3 3 1 1 2 1 5 6 6 7 8 10 10 8 12 5 8 5 2 3 4 2 4 6 10 13 6 7 7 8 11 8 5 7
16 15 15 13 12 12 12 9 8 11 12 1 3 3 3 3 5 6 3 2 3 6 6 6 5 17 19 12 9 15 4 5 3 5 3 2 7 3 2 3 0 2 6 16 21 23 13
18 18 16 14 11 12 12 10 8 8 12 2 2 4 1 2 4 6 9 3 4 9 4 6 13 12 7 12 17 5 2 5 3 3 3 1 3 1 1 5 4 4 6 8 15 12 15
19 17 17 17 12 12 12 11 10 9 11 3 1 1 2 3 3 3 5 6 5 4 8 15 9 3 9 16 10 12 7 7 6 6 7 4 4 3 10 4 6 13 8 16 8 6 8
19 18 17 18 13 13 14 13 13 11 14 3 3 2 3 4 7 6 4 9 10 8 6 7 5 4 1 3 5 3 1 3 7 9 4 7 6 3 2 5 7 3 1 3 7 2 2
21 19 18 19 16 14 14 13 15 16 16 3 3 3 3 3 2 6 12 12 12 5 5 5 4 4 3 2 3 3 2 3 3 3 3 2 4 4 5 6 8 2 3 4 4 2 1
21 21 19 19 16 13 12 11 14 17 15 4 3 2 3 1 6 5 3 4 6 4 2 2 1 2 2 3 2 4 4 2 2 2 3 1 3 2 2 5 8 1 2 4 3 4 3
22 21 19 18 14 14 11 10 9 14 15 5 3 5 2 3 3 1 2 3 2 1 3 1 1 2 1 2 3 4 3 1 3 3 3 3 1 4 3 3 5 1 1 1 4 1 4
23 20 16 15 14 12 12 11 11 13 10 5 1 2 4 2 2 2 0 1 2 2 2 2 0 1 0 2 3 2 3 3 2 2 4 5 6 4 3 2 9 4 3 4 1 2 5
14 9 10 11 12 15 16 17 14 12 12 9 2 0 2 2 2 1 4 1 1 1 1 2 2 1 3 2 2 3 2 1 3 2 0 4 2 3 5 1 1 2 1 2 3 5 4
Wind_Direction
22 15 9 8 5 4 360 360 357 353 351 350 350 348 346 343 341 339 337 331 326 323 315 308 312 336 47 44 249 326 338 335 12 62 60 49 83 119 119 111 85 84 110 54 70 80 71
3 9 5 5 3 359 1 357 356 353 350 348 349 348 347 341 338 336 333 327 321 311 305 310 317 320 108 247 135 340 330 6 27 53 36 37 125 132 104 77 77 98 95 123 85 113 111
314 329 344 350 350 353 352 356 356 352 352 348 345 346 343 340 335 328 327 320 316 310 301 300 311 329 101 223 147 319 13 105 347 95 112 116 141 81 120 97 162 146 87 116 160 175 145
303 298 309 317 324 334 338 347 350 353 351 348 346 341 339 337 335 330 323 313 308 297 289 290 295 163 233 201 187 39 344 37 9 53 102 114 92 100 68 113 40 73 57 143 194 156 77
293 293 296 305 306 316 325 330 334 342 347 345 345 344 340 337 334 332 322 310 294 276 265 281 272 129 271 138 136 283 58 79 349 38 36 72 68 87 64 93 38 4 201 198 243 195 139
272 276 287 294 299 297 310 320 325 328 336 341 340 345 342 339 334 327 320 304 280 318 338 266 19 18 212 209 163 126 53 85 102 91 43 47 54 81 52 111 215 196 208 221 218 201 163
275 278 273 266 277 284 293 304 314 320 327 333 336 340 343 339 334 330 338 6 9 317 33 207 207 233 203 136 109 39 79 113 106 62 158 7 106 199 203 186 145 142 172 199 223 175 155
273 271 275 273 274 278 279 285 296 305 317 325 331 335 337 334 330 334 353 50 39 264 304 232 227 255 232 199 168 239 154 143 149 173 123 40 234 211 120 165 150 155 161 226 304 122 178
316 276 272 279 278 276 277 274 274 288 301 312 324 335 337 329 322 45 34 22 341 330 269 288 207 184 196 145 216 207 154 143 145 145 185 166 229 124 136 149 162 196 179 194 198 119 231
349 355 327 288 281 278 273 276 275 277 280 298 316 336 343 328 59 311 23 344 359 3 6 266 221 257 98 152 257 161 158 133 138 193 160 226 205 159 158 184 146 194 195 159 149 123 231
345 343 347 342 302 279 275 266 266 276 280 292 312 336 342 6 260 23 292 334 359 68 338 298 200 301 107 161 138 251 343 82 177 176 125 241 168 168 170 206 173 208 113 129 105 118 59
340 340 343 344 348 338 275 265 266 267 266 276 298 337 346 48 46 307 321 344 61 51 259 296 94 177 124 146 220 77 110 52 128 123 76 215 255 197 192 97 128 148 83 53 56 96 266
328 333 336 341 342 335 355 307 270 268 264 257 266 355 337 274 206 335 336 29 44 158 298 272 257 200 235 194 188 174 182 184 166 131 214 184 217 182 144 90 48 103 102 306 329 300 229
318 321 326 328 329 330 341 342 347 301 269 249 165 37 9 271 345 65 46 48 207 228 234 88 92 37 217 160 247 167 165 246 241 133 129 165 273 171 186 189 176 184 170 172 219 209 248
306 316 322 326 329 330 335 336 337 323 310 176 120 41 12 357 118 58 75 217 213 199 226 154 102 185 249 244 182 167 194 219 216 180 187 163 268 39 73 140 140 189 200 172 103 64 10
317 303 311 317 322 325 328 328 332 327 318 156 104 71 95 142 216 75 104 234 241 238 154 152 200 178 211 205 182 186 193 210 210 188 116 218 146 10 100 82 8 182 163 102 9 199 244
311 319 310 306 316 316 320 320 316 333 264 134 46 254 119 210 125 55 196 217 247 255 198 210 255 247 224 189 202 211 224 258 219 159 140 153 129 15 113 208 180 155 198 114 128 172 195
297 304 307 315 306 307 312 316 321 336 140 76 127 265 312 294 107 145 206 203 302 276 47 298 284 251 227 218 214 233 216 231 157 154 174 199 137 176 197 194 177 215 204 171 163 212 238
284 284 292 298 302 293 296 304 312 314 175 144 221 116 339 349 240 202 237 253 249 209 229 253 258 227 170 265 258 203 210 313 178 170 168 186 213 122 309 326 348 212 189 178 106 71 201
282 283 283 287 294 297 284 292 303 307 200 168 157 209 132 171 52 290 275 260 254 232 251 210 253 302 299 268 216 292 289 335 293 225 255 132 186 189 227 198 132 188 190 184 171 170 183
287 279 275 275 290 294 289 271 284 300 203 166 177 226 150 179 221 213 147 268 272 277 227 193 222 225 235 252 239 249 278 331 348 322 344 192 229 174 336 54 348 213 178 189 205 219 209
289 284 272 264 271 287 301 273 273 272 207 233 219 178 195 201 182 186 187 216 242 279 252 255 232 233 243 246 230 253 179 180 238 336 246 340 283 104 85 44 24 296 262 207 229 242 250
293 287 280 268 263 273 278 278 260 259 191 221 97 227 172 150 161 192 210 201 226 197 231 249 282 262 230 240 260 262 204 178 178 198 185 201 171 97 259 52 11 283 207 205 194 201 189
289 288 292 272 258 267 266 268 249 246 203 226 183 168 172 223 195 209 227 217 243 228 249 266 265 240 257 140 102 45 46 223 202 206 185 174 170 163 181 116 232 279 345 26 257 259 130
286 285 286 276 259 264 270 266 260 233 212 173 167 195 194 252 217 268 258 264 277 253 241 250 258 326 271 236 123 271 248 234 172 46 251 289 167 172 196 195 325 205 157 148 146 310 345
287 279 283 268 252 257 259 272 291 236 223 136 174 181 185 214 225 217 237 240 265 254 256 204 217 277 288 269 157 202 249 266 270 294 358 240 7 255 156 199 219 68 194 151 114 268 181
284 279 278 258 251 263 249 265 269 285 234 149 168 171 144 226 195 116 202 238 208 210 252 295 233 248 317 254 250 198 210 110 216 215 189 146 134 214 200 232 291 156 132 158 143 219 153
285 276 264 252 253 263 266 265 270 260 246 146 159 221 154 187 200 119 134 208 234 211 238 139 183 195 73 274 265 232 211 183 160 130 210 180 159 176 161 177 255 173 127 190 156 89 125
272 262 266 265 266 267 269 270 266 259 238 143 139 37 93 118 87 342 85 73 258 152 285 223 322 196 208 232 269 305 248 135 119 261 156 242 234 213 208 220 122 178 47 78 151 135 148